Weather History for KCNK - July, 2012

Change the Weather History Date:

Monday, July 30, 2012

  Actual Average Record
Temperature  
Mean Temperature 84 °F 79 °F  
Max Temperature 97 °F 90 °F 106 °F (1980)
Min Temperature 71 °F 68 °F 48 °F (1971)
Degree Days  
Heating Degree Days 0 0  
Month to date heating degree days 0 0  
Since 1 June heating degree days 13 13  
Since 1 July heating degree days 0 0  
Cooling Degree Days 19 14  
Month to date cooling degree days 568 416  
Year to date cooling degree days 1211 770  
Since 1 June cooling degree days 967 681  
Growing Degree Days 34 (Base 50)    
Moisture  
Dew Point 63 °F    
Average Humidity 54    
Maximum Humidity 74    
Minimum Humidity 33    
Precipitation  
Precipitation T in 0.11 in 0.93 in (1932)
Month to date precipitation 1.22 3.80  
Year to date precipitation 14.91 17.84  
Snow  
Snow 0.00 in 0.00 in T in (1944)
Month to date snowfall 0.0 0.0  
Year to date snowfall 5.8 13.7  
Since 1 July snowfall 0.0 0.0  
Snow Depth 0.00 in    
Sea Level Pressure  
Sea Level Pressure 29.91 in    
Wind  
Wind Speed 6 mph (ENE)    
Max Wind Speed 30 mph    
Max Gust Speed 41 mph    
Visibility 10 miles    
Events      
T = Trace of Precipitation, MM = Missing Value Source: NWS Daily Summary

Daily Weather History Graph

Daily Weather History Graph

Search for Another Location

Airport or City:

Trip Planner

Search our weather history database for the weather conditions in past years. The results will help you decide how hot, cold, wet, or windy it might be!

Date:

Astronomy

Jul. 30, 2012 Rise Set
Actual Time 6:28 AM CDT 8:44 PM CDT
Civil Twilight 5:58 AM CDT 9:14 PM CDT
Nautical Twilight 5:21 AM CDT 9:51 PM CDT
Astronomical Twilight 4:40 AM CDT 10:32 PM CDT
Moon 6:47 PM CDT (7/30) 3:45 AM CDT (7/30)
Length of Visible Light 15h 16m
Length of Day
14h 16m
Waxing Gibbous, 92% of the Moon is Illuminated
Jul 30
Waxing Gibbous
Aug 1
Full
Aug 9
Last Quarter
Aug 17
New
Aug 24
First Quarter

Hourly Weather History & Observations

Time (CDT) Temp. Heat Index Dew Point Humidity Pressure Visibility Wind Dir Wind Speed Gust Speed Precip Events Conditions
12:55 AM 80.1 °F 81.7 °F 64.0 °F 58% 29.84 in 10.0 mi East 6.9 mph - N/A   Clear
1:55 AM 80.1 °F 81.9 °F 64.9 °F 60% 29.83 in 10.0 mi ESE 5.8 mph - N/A   Clear
2:55 AM 81.0 °F 83.0 °F 66.0 °F 60% 29.90 in 10.0 mi North 17.3 mph 41.4 mph N/A   Partly Cloudy
3:55 AM 73.0 °F - 64.9 °F 76% 29.93 in 10.0 mi NNE 17.3 mph 21.9 mph 0.00 in   Clear
4:55 AM 72.0 °F - 61.0 °F 68% 29.94 in 10.0 mi NNE 8.1 mph - N/A   Clear
5:55 AM 72.0 °F - 61.0 °F 68% 29.91 in 10.0 mi East 5.8 mph - N/A   Clear
6:55 AM 72.0 °F - 60.1 °F 66% 29.91 in 10.0 mi ENE 4.6 mph - N/A   Clear
7:55 AM 73.0 °F - 60.1 °F 64% 29.92 in 10.0 mi ENE 3.5 mph - N/A   Clear
8:55 AM 73.9 °F - 62.1 °F 66% 29.92 in 10.0 mi Calm Calm - 0.00 in   Scattered Clouds
9:55 AM 78.1 °F - 61.0 °F 56% 29.93 in 10.0 mi ENE 4.6 mph - N/A   Clear
10:55 AM 81.0 °F 82.2 °F 63.0 °F 54% 29.94 in 10.0 mi South 3.5 mph - N/A   Clear
11:55 AM 87.1 °F 87.8 °F 63.0 °F 44% 29.93 in 10.0 mi ENE 4.6 mph - N/A   Clear
12:55 PM 91.0 °F 90.9 °F 61.0 °F 36% 29.93 in 10.0 mi East 4.6 mph - N/A   Clear
1:55 PM 93.9 °F 93.6 °F 60.1 °F 32% 29.92 in 10.0 mi North 8.1 mph - N/A   Clear
2:55 PM 96.1 °F 97.3 °F 63.0 °F 33% 29.90 in 10.0 mi Variable 6.9 mph - N/A   Clear
3:55 PM 93.9 °F 97.5 °F 66.9 °F 41% 29.90 in 10.0 mi NE 10.4 mph - N/A   Clear
4:55 PM 93.0 °F 96.4 °F 66.9 °F 42% 29.90 in 10.0 mi NE 11.5 mph 20.7 mph N/A   Clear
5:55 PM 90.0 °F 91.7 °F 64.9 °F 43% 29.89 in 10.0 mi ENE 10.4 mph - N/A   Clear
6:55 PM 90.0 °F 91.3 °F 64.0 °F 42% 29.89 in 10.0 mi East 9.2 mph - N/A   Clear
7:55 PM 88.0 °F 89.3 °F 64.0 °F 45% 29.88 in 10.0 mi ENE 5.8 mph - N/A   Clear
8:55 PM 82.9 °F 85.0 °F 66.0 °F 56% 29.89 in 10.0 mi East 3.5 mph - N/A   Clear
9:55 PM 79.0 °F - 66.0 °F 64% 29.91 in 10.0 mi East 3.5 mph - N/A   Clear
10:55 PM 77.0 °F - 64.9 °F 66% 29.93 in 10.0 mi Calm Calm - N/A   Clear
11:55 PM 75.9 °F - 66.0 °F 71% 29.93 in 10.0 mi Calm Calm - N/A   Clear